[[{"header":{"parameterUnit":"m.s-1","parameterCategory":1,"la1":30.2991,"la2":30.254,"lo1":-89.0895,"lo2":-89.0444,"dy":0.0017,"dx":0.0017,"nx":28,"ny":28,"refTime":"2024-03-27T09:00:00:Z","depth":0,"parameterNumber":2,"parameterNumberName":"U-component_of_WINDS"},"data":[0,0,0,0,0,0,0,0,0,0,0,0,0,0,0,0,0,0,0,0,0,0,0,0,0,0,0,0,0,0,0,0,0,0,0,0,0,0,0,0,0,0,0,0,0,0,0,0,0,0,0,0,0,0,0,0,0,0,-2.3363,-2.3363,0,-2.3377,-2.3377,-2.3377,-2.3329,-2.3328,-2.3326,-2.3325,-2.334,-2.3341,-2.3343,0,0,0,0,0,0,0,0,0,0,0,0,0,-2.3296,-2.3298,-2.3363,-2.3363,-2.3364,-2.3377,-2.3377,-2.3377,-2.3329,-2.3328,-2.3326,-2.3324,-2.3339,-2.3341,-2.3343,0,0,0,0,0,0,0,0,0,0,0,0,0,-2.3319,-2.3298,-2.3363,-2.3341,-2.334,-2.3377,-2.3377,-2.3377,-2.333,-2.3328,-2.3325,-2.3323,-2.3338,-2.3341,-2.3343,-2.3402,0,0,-2.3351,-2.3352,0,0,0,0,0,0,0,0,-2.3318,-2.3322,-2.3344,-2.3343,-2.3341,-2.3349,-2.3359,-2.3386,-2.333,-2.3334,-2.3325,-2.3322,-2.3345,-2.3346,-2.3354,-2.3403,-2.3404,-2.3352,-2.3353,-2.3354,-2.3355,0,0,0,0,0,0,0,-2.3316,-2.3321,-2.3369,-2.3345,-2.3343,-2.3331,-2.3332,-2.3363,-2.3351,-2.3333,-2.333,-2.3332,-2.3343,-2.3351,-2.3354,-2.3404,-2.3351,-2.3354,-2.3355,-2.3356,-2.3502,-2.3504,0,0,0,0,0,0,-2.3318,-2.332,-2.3368,-2.3369,-2.3324,-2.3334,-2.3335,-2.3349,-2.335,-2.3349,-2.3334,-2.333,-2.3348,-2.3351,-2.3354,-2.3423,-2.3354,-2.3357,-2.3358,-2.35,-2.3503,-2.3505,0,0,0,0,0,0,-2.3316,-2.3322,-2.3368,-2.3343,-2.3348,-2.3337,-2.3353,-2.335,-2.3358,-2.3351,-2.3348,-2.3344,-2.3346,-2.335,-2.3391,-2.3423,-2.3358,-2.336,-2.3497,-2.3501,-2.3504,-2.3563,0,0,0,0,0,0,-2.3315,-2.3322,-2.3345,-2.3344,-2.335,-2.3404,-2.3355,-2.3352,-2.3363,-2.3357,-2.336,-2.3359,-2.3345,-2.3387,-2.3393,-2.3426,-2.3362,-2.3494,-2.3499,-2.3503,-2.3558,-2.3568,-2.3576,0,0,0,0,0,-2.3312,-2.3361,-2.3346,-2.3352,-2.3378,-2.3406,-2.3409,-2.3392,-2.3365,-2.3388,-2.3383,-2.3359,-2.3418,-2.3392,-2.3398,-2.3432,-2.3492,-2.3497,-2.3502,-2.3554,-2.3566,-2.3576,0,0,0,0,0,0,-2.3366,-2.3361,-2.3344,-2.3394,-2.3401,-2.3398,-2.3426,-2.3406,-2.3421,-2.3415,-2.3394,-2.3395,-2.3439,-2.3439,-2.3409,-2.3489,-2.3451,-2.3457,-2.3487,-2.3499,-2.3508,-2.3507,-2.3364,0,0,0,0,0,-2.3383,-2.3407,-2.3401,-2.3445,-2.345,-2.3437,-2.3449,-2.3435,-2.3442,-2.3445,-2.3443,-2.345,-2.347,-2.3484,-2.3503,-2.3557,-2.3557,-2.3584,-2.3593,-2.36,-2.3607,-2.3636,-2.3648,-2.3522,-2.3522,-2.3522,0,0,-2.342,-2.342,-2.3436,-2.3456,-2.346,-2.3485,-2.344,-2.3469,-2.3487,-2.3449,-2.3487,-2.3486,-2.3492,-2.354,-2.3561,-2.3542,-2.3641,-2.3607,-2.3613,-2.3616,-2.3642,-2.3654,-2.3665,-2.3526,-2.3525,-2.3525,0,0,-2.35,-2.3502,-2.3539,-2.3544,-2.355,-2.3541,-2.355,-2.355,-2.3548,-2.3585,-2.3557,-2.3579,-2.3614,-2.362,-2.3628,-2.3709,-2.3687,-2.3715,-2.3764,-2.3792,-2.3802,-2.3811,-2.384,-2.3851,-2.3721,-2.3722,-2.3722,0,-2.3545,-2.3581,-2.3561,-2.3591,-2.3601,-2.3567,-2.3605,-2.361,-2.3622,-2.3629,-2.3607,-2.3651,-2.3653,-2.3702,-2.3721,-2.3728,-2.3738,-2.3715,-2.3802,-2.3811,-2.3819,-2.3847,-2.3858,-2.3725,-2.3725,-2.3724,-2.3724,0,-2.3636,-2.3662,-2.3691,-2.3703,-2.3716,-2.375,-2.3735,-2.375,-2.3735,-2.3728,-2.3767,-2.3768,-2.3786,-2.3796,-2.3782,-2.3843,-2.3831,-2.3806,-2.3767,-2.3834,-2.386,-2.3871,-2.373,-2.3729,-2.3728,-2.3727,0,0,-2.3751,-2.3751,-2.3762,-2.3767,-2.3771,-2.379,-2.3822,-2.3839,-2.3853,-2.3862,-2.3889,-2.3919,-2.3896,-2.3905,-2.389,-2.3915,-2.398,-2.3887,-2.3887,-2.3905,-2.4048,-2.4067,-2.408,-2.3965,-2.3967,-2.3968,-2.4047,0,-2.383,-2.3885,-2.3867,-2.3923,-2.3946,-2.3914,-2.3942,-2.3947,-2.3942,-2.3961,-2.3955,-2.3977,-2.3944,-2.3949,-2.3972,-2.3967,-2.4008,-2.3961,-2.399,-2.3991,-2.3991,-2.4093,-2.4114,-2.4189,-2.4057,-2.4059,-2.406,0,-2.3929,-2.3942,-2.4,-2.4,-2.4009,-2.4034,-2.4048,-2.4067,-2.4072,-2.4066,-2.4076,-2.4056,-2.4088,-2.4048,-2.4091,-2.4059,-2.407,-2.4069,-2.4071,-2.4074,-2.4031,-2.41,-2.4212,-2.4224,-2.4076,-2.4075,-2.4073,0,-2.4009,-2.404,-2.4079,-2.4084,-2.4084,-2.4103,-2.4104,-2.4107,-2.4118,-2.413,-2.4137,-2.4153,-2.4162,-2.4175,-2.416,-2.4132,-2.4206,-2.4164,-2.4202,-2.4203,-2.422,-2.422,-2.4337,-2.4225,-2.4225,-2.4225,-2.4225,0,-2.4099,-2.4136,-2.4114,-2.4138,-2.4179,-2.4158,-2.4198,-2.4195,-2.4198,-2.4221,-2.4193,-2.4216,-2.4194,-2.4214,-2.4202,-2.424,-2.4244,-2.4241,-2.4238,-2.4244,-2.4245,-2.4252,-2.4246,-2.4228,-2.4227,-2.4227,-2.4226,0,-2.4195,-2.4182,-2.4222,-2.4218,-2.4218,-2.4248,-2.4245,-2.4267,-2.4259,-2.4288,-2.4294,-2.4282,-2.4304,-2.429,-2.4313,-2.4305,-2.4354,-2.4343,-2.4353,-2.435,-2.4389,-2.4386,-2.4516,-2.4532,-2.4409,-2.441,-2.4411,0,-2.4254,-2.4282,-2.4281,-2.4294,-2.4297,-2.4318,-2.433,-2.431,-2.4323,-2.433,-2.4351,-2.4371,-2.4386,-2.4423,-2.4416,-2.4433,-2.4423,-2.4467,-2.4426,-2.4431,-2.4425,-2.4424,-2.4427,-2.4476,-2.4478,-2.4479,-2.448,0,-2.4361,-2.4353,-2.437,-2.4385,-2.4399,-2.441,-2.4418,-2.4431,-2.4411,-2.4426,-2.4449,-2.446,-2.4483,-2.4503,-2.4517,-2.4518,-2.4496,-2.4493,-2.4502,-2.451,-2.4515,-2.4513,-2.4377,-2.449,-2.4489,-2.4488,-2.4488,-2.4487,-2.4441,-2.4464,-2.4467,-2.4487,-2.4491,-2.4499,-2.452,-2.4514,-2.4532,-2.4549,-2.4536,-2.4562,-2.4566,-2.4583,-2.4587,-2.4607,-2.4589,-2.4603,-2.4607,-2.4611,-2.4617,-2.451,-2.4609,-2.4609,-2.4609,-2.4609,-2.4608,0,-2.4547,-2.4547,-2.4565,-2.4578,-2.4594,-2.457,-2.4579,-2.4593,-2.4617,-2.4622,-2.4637,-2.4663,-2.4682,-2.4676,-2.4693,-2.4711,-2.4701,-2.4716,-2.4715,-2.4716,-2.4631,-2.4622,-2.4724,-2.4724,-2.4723,-2.4723,-2.4723,-2.4723,-2.4604,-2.4642,-2.4634,-2.4673,-2.4673,-2.4699,-2.4705,-2.4713,-2.4717,-2.4747,-2.4762,-2.4758,-2.4759,-2.4776,-2.4792,-2.479,-2.4798,-2.4817,-2.4811,-2.4733,-2.4722,-2.4711,-2.4702,-2.4819,-2.4819,-2.4894,-2.4895,-2.4895]},{"header":{"parameterUnit":"m.s-1","parameterCategory":1,"la1":30.2991,"la2":30.254,"lo1":-89.0895,"lo2":-89.0444,"dy":0.0017,"dx":0.0017,"nx":28,"ny":28,"refTime":"2024-03-27T09:00:00:Z","depth":0,"parameterNumber":3,"parameterNumberName":"V-component_of_WINDS"},"data":[0,0,0,0,0,0,0,0,0,0,0,0,0,0,0,0,0,0,0,0,0,0,0,0,0,0,0,0,0,0,0,0,0,0,0,0,0,0,0,0,0,0,0,0,0,0,0,0,0,0,0,0,0,0,0,0,0,0,-4.8509,-4.8508,0,-4.8402,-4.8401,-4.8399,-4.8354,-4.8354,-4.8354,-4.8354,-4.8236,-4.8233,-4.8229,0,0,0,0,0,0,0,0,0,0,0,0,0,-4.8667,-4.8664,-4.8509,-4.8508,-4.8506,-4.8402,-4.8401,-4.8399,-4.8354,-4.8354,-4.8354,-4.8354,-4.8237,-4.8233,-4.8229,0,0,0,0,0,0,0,0,0,0,0,0,0,-4.8583,-4.8663,-4.8509,-4.8471,-4.8467,-4.8402,-4.8401,-4.8399,-4.8354,-4.8354,-4.8354,-4.8355,-4.8238,-4.8234,-4.8229,-4.8191,0,0,-4.8213,-4.8211,0,0,0,0,0,0,0,0,-4.8588,-4.8577,-4.8478,-4.8474,-4.8469,-4.8392,-4.8413,-4.8329,-4.8354,-4.8396,-4.8354,-4.8355,-4.8287,-4.8278,-4.8257,-4.8186,-4.818,-4.8213,-4.821,-4.8208,-4.8206,0,0,0,0,0,0,0,-4.8594,-4.8581,-4.8466,-4.8477,-4.8471,-4.8457,-4.8446,-4.8397,-4.8341,-4.8393,-4.8389,-4.8378,-4.8284,-4.8262,-4.8254,-4.8179,-4.8213,-4.8208,-4.8205,-4.8203,-4.8072,-4.8072,0,0,0,0,0,0,-4.8607,-4.8587,-4.847,-4.8463,-4.8531,-4.8454,-4.8441,-4.8416,-4.8341,-4.833,-4.8377,-4.8376,-4.827,-4.826,-4.8249,-4.8201,-4.8208,-4.8203,-4.82,-4.8073,-4.8072,-4.8072,0,0,0,0,0,0,-4.861,-4.8597,-4.8474,-4.8524,-4.8507,-4.8451,-4.8423,-4.8414,-4.8391,-4.833,-4.8319,-4.8365,-4.827,-4.8256,-4.8207,-4.8197,-4.8201,-4.8196,-4.8073,-4.8072,-4.8072,-4.8105,0,0,0,0,0,0,-4.8615,-4.8598,-4.8585,-4.8524,-4.8505,-4.8436,-4.8422,-4.8411,-4.8384,-4.8381,-4.8316,-4.8305,-4.8269,-4.8215,-4.8202,-4.819,-4.8192,-4.8074,-4.8073,-4.8072,-4.8104,-4.8105,-4.8106,0,0,0,0,0,-4.8621,-4.8596,-4.8585,-4.8571,-4.8488,-4.8435,-4.8424,-4.8386,-4.8383,-4.8368,-4.8329,-4.8307,-4.82,-4.821,-4.8195,-4.8181,-4.8074,-4.8073,-4.8072,-4.8104,-4.8105,-4.8106,0,0,0,0,0,0,-4.8654,-4.8588,-4.8574,-4.8529,-4.8489,-4.8428,-4.8408,-4.8388,-4.8345,-4.8343,-4.8295,-4.8281,-4.8235,-4.8203,-4.8215,-4.8142,-4.8135,-4.8131,-4.8165,-4.8165,-4.8166,-4.8174,-4.8188,0,0,0,0,0,-4.8657,-4.8622,-4.8565,-4.8531,-4.8512,-4.8464,-4.8439,-4.8414,-4.8368,-4.835,-4.8307,-4.8262,-4.8218,-4.819,-4.8146,-4.81,-4.8085,-4.8083,-4.8084,-4.8085,-4.8082,-4.8056,-4.8054,-4.8068,-4.8068,-4.8068,0,0,-4.8661,-4.862,-4.8601,-4.8537,-4.8502,-4.8466,-4.8449,-4.841,-4.8382,-4.8343,-4.8295,-4.8262,-4.8208,-4.816,-4.8137,-4.8132,-4.8075,-4.8084,-4.8085,-4.8081,-4.8055,-4.8053,-4.8052,-4.8067,-4.8067,-4.8068,0,0,-4.865,-4.8616,-4.8585,-4.8552,-4.8501,-4.847,-4.8462,-4.8405,-4.8382,-4.8334,-4.8304,-4.8268,-4.8194,-4.8157,-4.8128,-4.8106,-4.8084,-4.8093,-4.8097,-4.8073,-4.8072,-4.807,-4.8062,-4.806,-4.809,-4.809,-4.809,0,-4.866,-4.8607,-4.8571,-4.8535,-4.8508,-4.8474,-4.8442,-4.841,-4.8346,-4.8327,-4.8323,-4.8231,-4.8191,-4.8135,-4.8131,-4.8108,-4.8097,-4.81,-4.8075,-4.8074,-4.8072,-4.8064,-4.8061,-4.8092,-4.8092,-4.8091,-4.8091,0,-4.8623,-4.8586,-4.8567,-4.851,-4.8481,-4.8446,-4.8403,-4.8377,-4.8355,-4.8323,-4.8274,-4.8227,-4.8174,-4.8158,-4.8134,-4.8099,-4.8097,-4.8085,-4.8077,-4.8073,-4.8064,-4.8061,-4.8094,-4.8093,-4.8093,-4.8093,0,0,-4.8628,-4.8555,-4.8548,-4.8523,-4.8465,-4.8435,-4.8399,-4.835,-4.8329,-4.8286,-4.8254,-4.8193,-4.8182,-4.815,-4.8121,-4.81,-4.8086,-4.809,-4.8088,-4.8091,-4.8044,-4.8054,-4.8051,-4.8071,-4.8071,-4.807,-4.8048,0,-4.8609,-4.8547,-4.8515,-4.8465,-4.8431,-4.8399,-4.8368,-4.8328,-4.8298,-4.8262,-4.8227,-4.8185,-4.8174,-4.8154,-4.8131,-4.8093,-4.8076,-4.8094,-4.8039,-4.8038,-4.8054,-4.8046,-4.8056,-4.8038,-4.8045,-4.8044,-4.8044,0,-4.8579,-4.8541,-4.849,-4.8438,-4.8422,-4.8395,-4.8349,-4.8316,-4.8269,-4.8249,-4.8215,-4.8188,-4.8147,-4.8143,-4.8085,-4.8099,-4.8074,-4.8052,-4.805,-4.8043,-4.804,-4.8039,-4.8031,-4.8028,-4.8038,-4.8039,-4.8039,0,-4.8589,-4.8524,-4.8486,-4.8465,-4.8403,-4.8385,-4.8358,-4.8313,-4.8286,-4.8245,-4.8227,-4.8179,-4.8153,-4.8117,-4.8077,-4.8078,-4.8023,-4.8016,-4.8003,-4.8005,-4.7992,-4.7994,-4.7981,-4.7978,-4.7978,-4.7978,-4.7978,0,-4.8571,-4.8541,-4.849,-4.8466,-4.8431,-4.8393,-4.8358,-4.8328,-4.8288,-4.8256,-4.8225,-4.8195,-4.8145,-4.8108,-4.8077,-4.8034,-4.8022,-4.8003,-4.7995,-4.8006,-4.8008,-4.7989,-4.7989,-4.7977,-4.7977,-4.7977,-4.7977,0,-4.8576,-4.8541,-4.8496,-4.8444,-4.8429,-4.8406,-4.8359,-4.8334,-4.8303,-4.8263,-4.8251,-4.8202,-4.8157,-4.8115,-4.8054,-4.8032,-4.7989,-4.7979,-4.8006,-4.8002,-4.7992,-4.7993,-4.7965,-4.7959,-4.7961,-4.7961,-4.7961,0,-4.8567,-4.8544,-4.849,-4.8468,-4.8443,-4.8408,-4.8382,-4.8343,-4.8316,-4.8264,-4.8244,-4.8198,-4.816,-4.8089,-4.8046,-4.8,-4.7987,-4.7981,-4.798,-4.7992,-4.7987,-4.7989,-4.7986,-4.7981,-4.7982,-4.7982,-4.7982,0,-4.8556,-4.854,-4.8505,-4.8465,-4.8436,-4.8401,-4.8364,-4.8347,-4.8302,-4.8273,-4.8229,-4.82,-4.814,-4.8094,-4.8043,-4.8012,-4.7989,-4.7983,-4.7978,-4.7988,-4.8005,-4.7996,-4.8009,-4.7983,-4.7983,-4.7983,-4.7983,-4.7983,-4.8553,-4.8531,-4.8491,-4.8453,-4.8423,-4.8391,-4.8365,-4.8333,-4.8296,-4.8247,-4.8226,-4.8181,-4.8136,-4.8066,-4.8035,-4.7998,-4.7993,-4.7985,-4.7983,-4.7981,-4.7984,-4.8012,-4.7989,-4.7989,-4.7988,-4.7988,-4.7988,0,-4.854,-4.8513,-4.848,-4.8432,-4.8402,-4.8387,-4.8347,-4.8322,-4.8285,-4.8246,-4.821,-4.8159,-4.8115,-4.807,-4.8023,-4.8002,-4.799,-4.7991,-4.7991,-4.7985,-4.7991,-4.8001,-4.8001,-4.8001,-4.8001,-4.8001,-4.8001,-4.8001,-4.853,-4.8493,-4.8473,-4.842,-4.8392,-4.8352,-4.833,-4.8299,-4.8269,-4.8215,-4.818,-4.8152,-4.811,-4.806,-4.8018,-4.8006,-4.7989,-4.7993,-4.7978,-4.7985,-4.7984,-4.7983,-4.7992,-4.799,-4.799,-4.7974,-4.7974,-4.7974]}]]